Find Galaxy 32

NORAD ID: 54244 Int'l Des: 2022-153 Owner: INTELU Country: US operational
HEOCIRCULARGSOGEO

Live Position

Loading 3D Globe...

About Galaxy 32

Description loading...

Upcoming Passes

Passes for default location (London). Set your location on the main map for personalized predictions.

Altitude History

Loading altitude history...

Two-Line Element Set

1 54244U 22153B 26105.42425824 .00000000 00000-0 00000+0 0 9996
2 54244 0.0149 239.8383 0002796 136.4782 249.0037 1.00269171 12517
Epoch: Apr 15, 2026 • Age: 7 hours

Current Status

Altitude 35775.0 km
Velocity 3.08 km/s
Sub-Earth Point 0.02°N, 91.01°W
Launch Date Nov 12, 2022
Age 3.4 years
Type other

Technical Details

Classification Payload
Mass 3300.00 kg
Dry Mass 2000.00 kg
Total Mass 3300.00 kg
Length 5.00 m
Diameter 2.80 m
Span 27.00 m
Shape Box+2 pan
Manufacturer MAXSS
Bus Type SSL-1300
Phase Status In Orbit
Owner/State INTELU/US

Most Searched